Home   Weather   Jamestown   Past weeks
Flag for Saint Helena

Past Weather in Jamestown, Saint Helena — Yesterday and Last 2 Weeks

Now
65 °F

Mild.


Feels Like: 65 °F
Forecast: 75 / 74 °F
Wind: 15 mph from Southeast

Location: Saint Helena Island

Current Time: Jan 24, 2019 at 6:44:09 am

Latest Report: Jan 24, 2019 at 5:00 am


Visibility: N/A

Pressure: 30.01 "Hg

Humidity: 98%

Dew Point: 65 °F

Location of JamestownLocation

Past Weather in Jamestown — Graph

°F

Jamestown Temperature Yesterday

Maximum temperature yesterday: 71 °F (at 12:50 pm)
Minimum temperature yesterday: 65 °F (at 8:00 am)
Average temperature yesterday: 68 °F

High & Low Weather Summary for the Past Weeks

 TemperatureHumidityPressure
High78 °F (Jan 16, 11:50 am)98% (Jan 24, 4:00 am)30.10 "Hg (Jan 24, 4:00 am)
Low63 °F (Jan 9, 5:00 am)48% (Jan 16, 11:00 am)29.93 "Hg (Jan 11, 4:00 pm)
Average69 °F81%30.00 "Hg
* Reported Jan 9 5:00 am — Jan 24 5:00 am, Jamestown. Weather by CustomWeather, © 2019

Note: Actual official high and low records may vary slightly from our data, if they occured in-between our weather recording intervals... More about our weather records

Advertising

Jamestown Weather History for the Previous 24 Hours

Scroll right to see more
 ConditionsComfort  
Time TempWeatherWind HumidityBarometerVisibility
5:00 am
Thu, Jan 24
65 °FMild.15 mph98%30.01 "HgN/A
4:00 am66 °FMild.16 mph98%30.00 "HgN/A
2:50 am67 °FMild.12 mph96%30.00 "HgN/A
2:00 am67 °FMild.13 mph96%30.02 "HgN/A
10:50 pm
Wed, Jan 23
67 °FMild.16 mph96%30.06 "HgN/A
9:50 pm68 °FMild.15 mph90%30.05 "HgN/A
7:50 pm68 °FMild.16 mph91%30.02 "HgN/A
7:00 pm68 °FMild.14 mph90%30.00 "HgN/A
5:50 pm68 °FMild.13 mph89%29.99 "HgN/A
5:00 pm67 °FMild.15 mph96%29.99 "HgN/A
4:00 pm69 °FMild.13 mph84%29.99 "HgN/A
2:50 pm70 °FLow clouds.15 mph81%30.00 "Hg25 mi
2:00 pm70 °FLow clouds.15 mph83%30.01 "Hg25 mi
1:00 pm71 °FOvercast.15 mph78%N/A28 mi
12:50 pm71 °FOvercast.15 mph78%N/A28 mi
10:50 am67 °FFog.18 mph96%30.05 "Hg0 mi
10:00 am67 °FFog.13 mph96%30.06 "Hg1 mi
8:50 am68 °FSprinkles. Low clouds.16 mph86%30.05 "Hg1 mi
8:00 am65 °FMild.16 mph95%30.06 "HgN/A
6:50 am65 °FMild.16 mph94%30.04 "HgN/A
6:00 amN/AOvercast.17 mphN/AN/A1 mi
Weather by CustomWeather, © 2019

See weather overview